COSMOS 2251 DEB

Satellite information

Favourite Embed

Satellite Type and Status

DEBRISIN ORBIT

Key statistics

Satellite COSMOS 2251 DEB at a glance.

Uptime

11869

Days in orbit

Revolutions

≈ 14.4

Per day

Orbit

LEO

Low Earth Orbit

Inclination

74.0

Latest

Satellite identification and parameters

Extended collection of information and parameters for COSMOS 2251 DEB.

Object identification

Identified? True

Debris? True

Object name: COSMOS 2251 DEB

International designator: 1993-036GL

Object number (NORAD): 34001

Object ID (CCSDS): 34001

Country: COMMONWEALTH OF INDEPENDENT STATES (CIS)

Current information (Y/N): Y

RCS size: SMALL

Orbital parameters

Period: 100.202 minutes

Inclination: 74.0388 deg

SMA: 7146.233 km

Apoapsis: 782.375 km

Periapsis: 753.821 km

RAAN: 280.5715 deg

Eccentricy: 0.00199789

Argument of periapsis: 1.3555 deg

Mean anomaly: 126.1312 deg

Mean motion: 14.3710006 rev/day

Mean motion (dot): 0.00000981 rev/day2

B* drag term: 0.00033831961 1/REarth

Two-line elements (TLE)

Creation date: Dec. 13, 2025, 5:47 p.m.

Reference frame: TEME

Reference center: EARTH

Epoch: Dec. 13, 2025, 7 a.m. UTC

TLE line 0: 0 COSMOS 2251 DEB

TLE line 1: 1 34001U 93036GL 25347.29212122 .00000981 00000-0 33832-3 0 9991

TLE line 2: 2 34001 74.0388 280.5715 0019979 1.3555 126.1312 14.37100060881546

Live tracking on map

Real-time ground track for satellite COSMOS 2251 DEB.

In-orbit conjunctions

A list of the most updated potential collisions computed for object COSMOS 2251 DEB.

Target Orbit TCA Probability of collision Miss distance Type
DELTA 1 DEB SSO 2025-09-02 02:11:26 0.0001727296 28.0 (m) DEBRIS
FENGYUN 1C DEB SSO 2025-08-14 23:30:36 0.0001530135 349.0 (m) DEBRIS
NOAA 16 DEB SSO 2024-11-09 08:23:47 0.0002596103 766.0 (m) DEBRIS

Associated space launch

Military communications satellite. Destroyed in a collision with Iridium 33.

COSMOS 2251 DEB was lifted into orbit during the mission ‘Kosmos-3M | Strela-2M 51’, on board a Kosmos-3M space rocket.

The launch took place on June 16, 1993, 4:17 a.m. from 132/1 (132L).

For more information about the launch, click the button.

Launch to space Kosmos-3M | Strela-2M 51
Kosmos-3M | Strela-2M 51

Agency: N/A

Status: Launch Successful

Launch date: June 16, 1993, 4:17 a.m. UTC

Rocket: Kosmos-3M

Launch pad: 132/1 (132L)

Location: Plesetsk Cosmodrome, Russian Federation

...

Latest news about this satellite

There are no fresh news available about this satellite. Check back as we update our databases every day.


Newsletter sign-up

Weekly statistics, charts and insights to help you stay on top of the space industry.